Zurück zum Katalog

FENGYUN 1C DEB

AktivSSO
NORAD 38138·DEBRIS·🇨🇳 China

Gestartet May 10, 1999 von Taiyuan Satellite Launch Center

Loading…

Nächste Überflüge (nächste 24 Stunden)

TLE

AlterndSource: Space-Track

Epoche: Sep 6, 2026, 12:36 UTC

1 38138U 99025EQK 26249.52509070  .00002500  00000-0  82193-3 0  9992
2 38138  98.8033 356.3333 0035342 257.4625 102.2607 14.38822166676514

Verfolge FENGYUN 1C DEB in Echtzeit mit AllMySat

Download on the App Store